Wind_Speed
34 40 34 32 29 29 28 26 24 24 25 27 28 29 24 23 25 33 34 42 49 52 41 33 27 19 15 12 11 9 9 10 9 10 11 10 10 11 13 15 17 19 20 21 22 22 21 19 15
37 39 35 31 28 30 29 28 23 25 27 25 26 26 19 20 29 31 33 41 50 50 39 31 25 18 14 10 8 8 6 7 7 7 7 7 9 10 11 12 14 14 14 14 12 12 13 16 20
43 40 39 36 33 30 25 27 26 25 23 20 20 17 18 25 26 31 31 41 48 45 34 28 21 15 11 8 7 6 6 6 6 6 5 5 7 6 6 7 8 8 11 14 16 18 19 21 21
43 42 36 40 34 32 28 27 26 22 18 18 17 16 22 19 26 32 31 40 44 34 30 24 18 14 11 6 5 6 5 4 5 4 3 3 2 2 7 11 13 14 16 18 19 20 23 25 25
44 41 36 36 35 37 34 32 27 22 21 21 15 19 21 25 27 28 30 38 37 36 30 22 20 17 13 11 10 7 6 5 4 4 5 10 12 15 15 16 18 19 21 21 22 24 23 23 24
45 45 43 39 38 37 38 31 27 26 23 20 17 21 21 18 26 29 30 32 36 37 34 25 22 23 20 15 11 11 12 13 14 17 17 19 19 20 20 21 22 22 23 23 23 23 24 25 26
52 47 49 43 40 38 39 35 35 28 24 22 17 24 17 18 27 29 24 27 34 34 37 31 27 25 24 22 19 19 19 19 19 20 20 23 23 25 24 24 24 26 27 28 28 28 30 31 30
58 54 50 49 46 42 39 38 36 30 26 22 21 26 16 21 26 27 22 22 30 30 35 35 38 28 26 26 26 25 25 25 25 25 26 27 27 28 29 29 30 30 30 31 31 30 29 28 29
54 52 50 55 49 48 46 41 32 31 27 22 24 24 19 25 24 22 18 21 20 25 29 31 36 32 31 32 27 26 26 28 29 29 30 32 31 29 29 29 30 31 33 34 32 32 31 30 30
56 53 53 56 52 47 43 40 33 30 30 20 31 20 19 23 22 20 20 18 17 20 24 26 31 30 33 31 30 28 26 26 27 27 26 26 26 24 23 25 28 35 34 35 33 33 35 32 35
62 56 54 54 51 52 46 44 36 38 32 21 33 28 28 26 21 19 20 20 20 15 14 19 24 23 27 26 23 23 24 27 25 25 23 27 28 27 26 24 25 29 30 33 36 39 41 40 41
68 65 60 60 58 55 49 45 39 41 35 26 33 29 29 25 23 21 20 23 17 16 14 16 20 22 22 22 23 23 21 18 24 26 23 25 28 27 30 23 23 26 31 34 36 40 45 46 45
65 61 57 53 53 54 50 50 44 39 34 26 32 33 32 24 24 22 24 23 17 17 14 15 18 18 19 19 22 18 18 16 18 21 24 28 33 31 35 31 33 33 32 37 37 41 43 44 47
63 65 64 61 57 53 57 56 51 45 40 33 37 40 33 26 26 22 27 23 22 17 16 15 15 15 17 20 19 18 14 12 14 19 21 26 30 34 38 37 37 40 38 36 38 41 45 47 49
68 69 64 62 63 61 61 44 50 48 49 41 37 39 36 34 29 23 27 27 24 20 15 17 17 17 15 17 16 20 22 21 21 18 22 26 29 31 35 36 39 41 41 40 40 44 45 50 51
78 71 67 64 63 62 60 57 59 49 50 44 43 41 35 31 29 25 25 27 26 26 20 20 24 23 20 20 19 17 20 22 24 25 25 27 31 30 35 37 41 43 42 39 39 43 46 52 53
73 71 69 66 66 66 61 62 57 54 51 50 52 42 41 42 33 27 25 27 29 28 25 22 23 26 26 27 27 25 24 27 27 29 28 29 31 30 33 38 40 41 42 41 39 42 50 55 56
73 75 75 71 69 69 64 64 57 59 56 56 55 51 40 41 38 30 27 27 32 30 27 26 24 24 27 28 28 34 29 32 34 33 33 34 34 35 37 40 45 44 41 42 43 45 53 56 60
77 83 81 73 73 72 69 65 64 59 58 58 54 51 48 47 36 35 29 32 33 32 28 33 31 32 29 31 30 34 38 37 38 34 36 40 38 40 39 42 45 44 46 41 42 46 52 55 60
81 82 80 79 78 74 74 65 65 63 59 60 59 53 50 52 41 34 33 34 35 34 33 36 38 36 34 31 33 35 36 39 39 38 41 43 39 41 43 46 50 47 46 46 46 50 58 64 66
78 82 87 87 85 85 80 72 69 63 64 59 62 61 54 51 48 44 40 37 41 39 37 36 42 43 37 36 37 37 38 39 39 42 44 40 40 41 50 56 52 49 54 53 56 60 64 66 67
83 83 95 95 91 84 79 77 79 72 70 67 62 56 59 62 60 56 45 46 46 46 40 38 42 46 42 40 40 39 41 42 42 43 40 43 44 48 56 55 58 58 56 58 61 64 68 75 73
86 86 93 98 97 91 87 83 72 70 67 72 73 71 68 61 58 57 57 50 48 47 47 39 48 50 47 45 46 45 48 46 46 44 47 46 49 54 55 57 57 57 62 69 72 73 80 78 77
92 91 98 100 97 95 83 86 75 69 72 73 74 74 77 67 68 66 67 67 56 51 48 47 50 52 49 50 58 57 53 51 51 48 50 51 53 56 59 60 59 58 71 71 75 77 83 84 84
94 94 100 100 99 88 85 90 67 76 74 73 74 72 72 72 67 65 64 64 68 61 52 48 50 56 55 51 53 64 56 51 55 58 54 57 62 62 67 63 61 69 73 77 78 80 84 87 90
94 100 99 102 99 94 99 93 82 86 84 80 78 79 77 73 73 66 66 63 60 61 62 59 50 52 57 57 57 60 58 56 61 62 61 63 62 72 71 65 69 74 79 83 78 84 88 89 91
101 104 105 104 102 107 106 96 92 91 89 85 82 81 78 78 79 79 72 67 67 67 66 65 59 57 55 60 62 65 60 63 63 63 65 66 74 72 71 66 73 78 83 88 85 86 91 94 96
103 109 114 112 106 111 107 103 92 89 89 86 82 82 78 76 80 84 79 81 81 71 67 66 68 69 67 60 60 59 67 72 70 70 71 76 75 77 75 76 81 83 88 88 89 89 94 97 101
106 112 110 108 106 112 110 102 97 93 90 88 86 86 82 83 83 84 81 78 83 81 80 80 79 75 73 74 70 68 70 70 72 76 81 78 79 78 81 82 87 89 93 96 97 97 99 103 105
117 108 115 113 109 111 113 103 100 96 95 93 94 91 86 87 88 89 86 80 81 81 81 80 78 78 79 76 75 79 81 80 79 87 86 83 83 86 84 87 92 95 99 101 102 104 103 105 108
Wind_Direction
225 217 223 236 236 234 226 235 244 258 270 280 281 297 316 325 318 332 341 331 337 337 332 330 328 322 319 317 306 285 281 286 283 287 296 288 282 280 273 273 279 284 290 295 294 293 295 300 313
225 221 224 241 239 235 243 245 243 255 267 279 285 291 311 315 314 333 336 336 339 341 337 335 333 336 335 340 332 323 310 308 295 292 291 287 289 290 297 303 304 300 296 302 315 326 342 357 5
230 227 238 243 240 238 240 242 248 260 265 275 282 298 303 310 321 336 339 339 341 344 342 342 344 349 345 345 337 319 312 288 289 284 280 285 281 282 280 283 310 335 9 23 25 22 19 19 18
233 235 236 238 234 232 239 246 249 254 265 284 285 293 297 315 325 335 338 344 343 354 353 353 357 355 356 342 326 312 298 299 287 283 264 254 237 48 50 49 47 44 40 39 36 31 27 23 18
227 227 231 231 232 231 239 249 253 257 265 283 278 288 289 301 324 338 339 341 347 353 8 4 13 13 10 13 6 354 344 10 23 36 66 84 82 75 66 58 53 48 43 39 33 27 26 23 21
230 233 236 234 232 235 238 245 249 259 276 276 279 279 287 316 333 343 339 342 346 0 12 23 28 31 33 40 45 53 57 67 77 79 75 73 68 65 61 54 49 46 41 40 38 31 24 21 19
228 234 233 240 240 235 233 242 249 263 266 265 272 272 285 312 328 330 334 343 345 356 6 22 35 40 42 43 46 52 57 61 63 67 65 63 60 55 53 50 44 38 37 34 30 28 26 22 18
240 238 239 238 240 235 236 248 247 257 259 256 264 265 298 310 320 321 328 343 347 354 9 17 28 35 41 47 51 53 56 57 57 52 55 56 56 53 52 51 47 44 40 37 32 27 25 24 21
234 237 240 240 241 238 244 248 251 253 255 248 250 257 293 302 311 316 325 334 349 352 4 15 27 32 36 34 35 44 55 53 55 56 56 59 58 60 57 57 48 40 37 33 31 26 22 21 16
237 234 235 236 236 239 241 243 251 251 253 247 255 262 280 292 306 312 312 324 341 351 4 22 24 31 35 35 33 38 47 51 55 56 57 56 51 44 41 41 42 38 36 33 29 20 15 9 5
233 224 229 232 239 239 239 243 247 255 251 239 254 258 282 277 290 308 305 313 329 346 3 14 24 27 26 33 35 36 47 51 54 54 58 48 34 37 38 34 29 26 24 24 24 17 14 7 2
230 230 234 237 240 238 239 239 246 255 249 235 245 267 266 273 287 295 299 299 319 330 344 1 26 23 20 23 22 32 28 30 38 44 40 34 24 15 20 11 8 7 15 16 14 8 4 2 2
219 229 224 227 230 233 238 240 245 251 236 235 248 260 267 271 278 288 291 293 302 309 323 340 3 10 9 11 8 20 24 29 24 18 17 13 11 16 12 9 8 3 4 4 3 2 0 359 358
220 218 223 231 226 230 242 248 246 246 240 232 243 253 261 268 272 279 285 277 287 299 301 312 319 348 354 351 0 5 8 7 4 352 354 354 358 2 5 3 358 355 352 349 354 356 352 353 352
219 224 223 225 233 235 237 231 236 243 244 241 238 250 252 263 267 261 279 276 274 290 299 290 303 307 331 329 340 345 345 348 344 336 344 347 349 351 353 356 351 347 344 344 344 345 345 345 344
226 229 227 226 226 231 235 238 240 238 244 243 245 239 246 266 262 253 267 277 270 273 283 284 286 292 301 308 313 323 333 332 336 332 336 336 333 335 341 344 344 343 339 335 331 336 339 336 336
224 226 224 229 232 237 236 235 235 237 235 245 239 240 243 255 259 251 256 271 278 268 271 283 282 288 287 295 301 308 314 319 320 320 323 322 324 325 335 337 338 338 334 327 323 324 330 332 332
222 228 230 229 227 226 230 229 231 233 238 243 236 242 240 254 251 253 254 264 273 264 274 281 278 288 284 284 292 298 305 310 310 312 315 316 314 314 325 328 329 330 327 325 320 316 323 326 327
217 221 227 229 221 221 224 231 241 233 235 235 233 229 235 246 252 247 259 262 267 261 276 285 277 278 284 282 290 296 294 297 301 305 309 315 307 309 315 322 324 323 324 319 317 313 320 323 324
217 216 225 225 223 218 225 232 234 231 236 230 234 234 240 243 241 244 252 260 258 269 271 279 284 279 275 283 282 280 285 292 297 299 303 310 306 306 312 318 320 319 318 317 314 314 314 319 321
220 215 222 224 228 228 234 226 223 230 235 232 237 240 239 240 242 246 246 256 262 258 267 275 282 278 272 277 281 284 280 284 289 296 303 306 301 299 311 313 314 313 314 310 317 316 315 316 318
221 220 223 226 228 227 227 226 229 236 235 233 234 234 237 241 243 250 245 251 249 254 257 270 274 275 271 273 281 280 281 287 291 295 298 299 300 301 308 311 314 316 308 306 309 313 316 315 316
224 222 222 225 225 229 237 234 237 233 233 235 238 243 244 240 240 247 251 259 249 255 261 264 273 270 272 270 274 274 287 285 288 289 300 295 299 303 307 311 309 312 315 313 311 312 314 313 315
224 223 221 224 228 233 231 234 229 226 228 232 238 243 246 250 253 254 256 252 253 257 257 260 262 267 276 280 281 284 286 284 288 293 298 296 303 302 306 309 308 305 313 313 312 309 312 311 312
226 226 224 225 230 230 225 230 215 223 224 232 238 240 244 245 251 249 255 252 253 257 259 267 266 264 267 275 281 281 283 283 289 292 291 295 298 301 302 305 306 309 311 312 312 310 309 309 310
226 226 224 225 225 225 225 228 217 228 227 231 238 241 246 247 249 249 248 249 252 252 256 260 267 266 264 265 276 283 279 280 286 289 291 294 297 302 305 301 307 308 310 311 311 309 308 308 309
225 224 226 227 224 226 228 223 225 230 232 234 240 240 242 248 245 245 245 249 254 254 255 257 261 266 271 269 269 269 278 280 288 287 292 293 300 302 300 301 300 303 307 311 309 306 307 307 308
224 221 225 227 223 228 227 226 232 229 233 239 239 235 240 242 243 245 249 255 255 254 254 258 264 269 271 271 273 274 276 279 280 286 292 294 298 299 297 297 301 304 310 309 310 307 306 307 307
228 221 226 229 227 227 229 228 227 227 234 235 233 236 242 240 246 245 252 256 258 255 258 264 262 266 270 274 273 272 273 281 282 284 292 298 299 298 297 297 302 305 308 308 307 306 309 307 309
229 223 224 226 227 227 227 226 227 230 230 233 233 235 242 248 245 249 252 252 256 257 258 259 262 265 269 271 274 275 275 281 282 289 290 294 296 300 296 296 302 304 306 307 306 308 306 308 311
Height
10876 10880 10883 10886 10889 10892 10895 10897 10900 10902 10903 10904 10905 10905 10905 10904 10903 10900 10895 10890 10885 10878 10869 10862 10858 10854 10851 10850 10850 10850 10850 10850 10851 10852 10852 10854 10855 10856 10856 10857 10857 10858 10858 10858 10858 10856 10855 10853 10851
10871 10877 10881 10883 10886 10890 10893 10895 10898 10900 10902 10902 10903 10903 10904 10904 10902 10899 10894 10889 10884 10875 10866 10860 10856 10853 10850 10849 10849 10849 10849 10849 10850 10852 10852 10853 10853 10853 10854 10855 10854 10854 10854 10854 10854 10853 10853 10852 10850
10867 10873 10877 10880 10883 10887 10890 10893 10896 10897 10899 10901 10901 10902 10902 10902 10900 10898 10893 10889 10883 10873 10866 10859 10855 10852 10850 10848 10848 10848 10848 10847 10848 10849 10850 10850 10851 10852 10852 10852 10853 10853 10854 10854 10853 10851 10851 10850 10849
10864 10869 10873 10877 10880 10885 10887 10891 10893 10894 10897 10898 10899 10900 10901 10900 10899 10897 10893 10889 10884 10875 10867 10860 10856 10852 10850 10848 10847 10847 10847 10847 10847 10848 10849 10850 10850 10851 10852 10854 10853 10853 10853 10853 10852 10852 10851 10850 10849
10858 10864 10868 10872 10876 10881 10884 10888 10891 10892 10894 10896 10897 10899 10900 10899 10897 10896 10892 10890 10885 10878 10870 10863 10858 10854 10851 10849 10848 10848 10848 10848 10848 10849 10850 10851 10852 10852 10853 10854 10854 10853 10853 10853 10853 10851 10850 10850 10848
10852 10859 10863 10867 10872 10876 10879 10884 10887 10888 10891 10892 10894 10896 10898 10897 10896 10895 10893 10890 10886 10880 10875 10868 10861 10858 10855 10853 10853 10851 10850 10849 10850 10851 10851 10852 10852 10853 10854 10853 10853 10854 10854 10853 10853 10852 10851 10850 10848
10846 10853 10858 10863 10869 10871 10875 10879 10882 10885 10888 10889 10891 10894 10895 10895 10895 10895 10893 10890 10886 10882 10876 10871 10865 10861 10859 10857 10856 10854 10853 10852 10853 10853 10854 10854 10854 10854 10854 10855 10855 10855 10854 10854 10853 10853 10850 10849 10848
10839 10847 10853 10857 10862 10867 10870 10875 10878 10882 10884 10886 10889 10891 10891 10892 10894 10893 10892 10890 10886 10881 10877 10872 10868 10865 10863 10861 10859 10858 10857 10857 10857 10857 10856 10856 10856 10856 10857 10857 10857 10856 10855 10855 10853 10853 10852 10851 10850
10831 10838 10845 10847 10855 10861 10865 10870 10875 10879 10881 10883 10886 10888 10888 10889 10891 10891 10891 10889 10886 10883 10879 10874 10871 10869 10866 10865 10863 10862 10861 10860 10859 10857 10857 10857 10859 10860 10860 10859 10858 10857 10856 10855 10855 10854 10853 10851 10849
10823 10830 10834 10839 10848 10854 10860 10865 10871 10874 10877 10880 10883 10884 10886 10886 10889 10889 10888 10888 10885 10883 10880 10877 10873 10870 10868 10868 10867 10866 10864 10863 10861 10860 10860 10861 10862 10862 10862 10860 10859 10858 10858 10857 10856 10855 10853 10851 10848
10817 10820 10825 10832 10842 10848 10855 10859 10866 10869 10873 10876 10879 10880 10883 10883 10885 10887 10886 10886 10884 10883 10881 10879 10877 10875 10872 10872 10871 10870 10869 10866 10865 10864 10864 10864 10865 10864 10862 10861 10860 10860 10858 10857 10855 10853 10851 10849 10846
10803 10810 10819 10825 10835 10842 10848 10855 10860 10864 10869 10870 10875 10875 10878 10880 10882 10884 10884 10884 10883 10883 10881 10879 10878 10877 10876 10874 10873 10872 10870 10869 10867 10867 10867 10866 10865 10864 10863 10862 10860 10859 10857 10855 10853 10850 10847 10844 10841
10796 10805 10813 10819 10827 10834 10841 10847 10855 10860 10862 10865 10870 10872 10874 10876 10878 10880 10880 10882 10882 10881 10881 10879 10878 10877 10876 10876 10874 10873 10872 10870 10869 10867 10866 10866 10864 10863 10862 10860 10859 10858 10855 10853 10850 10847 10843 10840 10837
10785 10793 10802 10810 10817 10824 10832 10841 10847 10853 10855 10861 10866 10867 10871 10872 10874 10876 10877 10878 10880 10879 10879 10879 10878 10877 10875 10875 10875 10874 10872 10870 10868 10867 10866 10865 10863 10861 10858 10857 10855 10854 10853 10850 10847 10842 10839 10834 10830
10771 10781 10790 10800 10807 10815 10824 10834 10837 10845 10848 10855 10860 10863 10866 10868 10870 10872 10873 10874 10875 10877 10876 10876 10876 10877 10875 10874 10873 10872 10870 10869 10868 10866 10864 10863 10861 10858 10857 10854 10852 10850 10848 10844 10841 10838 10833 10828 10825
10760 10773 10785 10793 10801 10807 10817 10823 10828 10836 10842 10848 10853 10857 10860 10863 10866 10867 10869 10870 10871 10872 10872 10872 10872 10871 10871 10871 10870 10869 10867 10866 10864 10863 10861 10859 10857 10855 10854 10852 10848 10845 10843 10840 10837 10833 10829 10824 10818
10755 10768 10777 10781 10790 10799 10810 10811 10820 10828 10834 10840 10845 10850 10853 10858 10859 10862 10864 10866 10867 10868 10868 10868 10868 10868 10867 10866 10865 10865 10863 10862 10861 10860 10857 10855 10854 10852 10850 10848 10845 10842 10839 10835 10832 10827 10824 10818 10811
10747 10752 10761 10770 10779 10786 10798 10801 10810 10817 10826 10831 10837 10843 10847 10851 10852 10856 10858 10861 10862 10863 10863 10864 10864 10863 10862 10861 10860 10859 10858 10857 10855 10854 10853 10850 10849 10847 10845 10842 10840 10837 10833 10829 10825 10821 10817 10812 10803
10728 10737 10746 10756 10763 10775 10786 10789 10800 10808 10816 10824 10828 10832 10838 10843 10848 10850 10852 10855 10857 10857 10858 10859 10859 10859 10857 10857 10855 10855 10853 10852 10849 10847 10845 10844 10842 10840 10839 10836 10833 10829 10826 10821 10817 10813 10809 10806 10799
10715 10727 10738 10742 10751 10764 10771 10780 10788 10802 10808 10815 10820 10826 10831 10838 10840 10842 10845 10848 10850 10851 10852 10851 10853 10852 10851 10850 10849 10848 10847 10845 10843 10841 10838 10836 10835 10832 10830 10827 10824 10820 10817 10813 10809 10804 10800 10797 10795
10710 10720 10721 10728 10734 10747 10758 10769 10781 10793 10801 10809 10815 10820 10825 10827 10830 10834 10837 10840 10842 10842 10844 10845 10845 10845 10845 10844 10842 10842 10840 10838 10837 10835 10832 10829 10827 10825 10822 10819 10815 10811 10807 10803 10799 10795 10790 10785 10782
10694 10699 10701 10710 10721 10739 10743 10764 10773 10784 10793 10803 10808 10812 10814 10817 10821 10825 10828 10831 10832 10834 10836 10837 10837 10837 10838 10837 10836 10833 10831 10830 10827 10826 10823 10820 10817 10815 10811 10808 10804 10799 10796 10792 10788 10784 10779 10773 10768
10677 10681 10686 10697 10705 10719 10733 10750 10766 10773 10787 10796 10797 10801 10804 10806 10810 10814 10819 10823 10824 10825 10824 10827 10830 10829 10829 10830 10829 10825 10823 10820 10819 10817 10814 10810 10808 10805 10801 10798 10794 10790 10786 10782 10777 10772 10766 10759 10755
10661 10669 10675 10684 10689 10700 10728 10733 10750 10767 10775 10776 10784 10789 10791 10796 10799 10804 10809 10813 10814 10815 10816 10816 10818 10818 10818 10820 10819 10817 10814 10812 10810 10808 10805 10801 10799 10795 10792 10788 10784 10780 10776 10771 10765 10761 10755 10748 10742
10651 10660 10662 10665 10675 10712 10714 10712 10759 10747 10756 10763 10770 10776 10779 10784 10791 10793 10797 10800 10802 10804 10806 10808 10808 10808 10809 10810 10809 10807 10802 10801 10800 10799 10796 10792 10789 10786 10782 10777 10773 10768 10763 10758 10753 10747 10740 10733 10727
10633 10643 10646 10652 10671 10690 10684 10706 10740 10729 10739 10748 10757 10765 10772 10777 10781 10782 10784 10786 10789 10792 10794 10797 10797 10798 10799 10800 10798 10795 10792 10789 10787 10787 10784 10781 10777 10773 10769 10764 10760 10756 10750 10745 10739 10732 10724 10716 10708
10615 10625 10627 10637 10652 10657 10667 10695 10709 10718 10726 10737 10743 10751 10757 10761 10765 10767 10769 10773 10776 10779 10781 10783 10784 10784 10785 10785 10786 10783 10782 10778 10776 10775 10771 10769 10765 10761 10757 10752 10748 10741 10736 10730 10723 10715 10708 10699 10692
10594 10605 10604 10616 10635 10641 10660 10680 10706 10710 10712 10720 10731 10736 10739 10742 10748 10750 10754 10758 10763 10766 10769 10771 10771 10771 10773 10772 10772 10771 10771 10767 10766 10763 10760 10756 10752 10748 10743 10738 10733 10727 10721 10713 10706 10698 10691 10683 10673
10573 10588 10596 10611 10621 10630 10649 10670 10684 10690 10695 10703 10714 10719 10722 10726 10731 10734 10740 10745 10750 10753 10756 10757 10757 10757 10758 10758 10758 10757 10756 10754 10752 10749 10745 10741 10737 10733 10728 10723 10717 10711 10704 10696 10688 10680 10673 10664 10655
10552 10567 10579 10587 10607 10613 10625 10655 10666 10673 10682 10688 10697 10702 10705 10710 10715 10720 10726 10731 10735 10738 10740 10741 10743 10742 10743 10743 10744 10742 10741 10738 10736 10732 10729 10725 10721 10717 10711 10706 10700 10693 10686 10678 10670 10663 10653 10646 10637